Regional Weather Roundup
Issued by NWS Wakefield, VA

Home | Current Version | Previous Version | Graphics & Text | Print | Product List | Glossary On
Versions: 1 2 3 4 5 6 7 8 9 10 11 12 13 14 15 16 17 18 19 20 21 22 23 24 25 26 27 28
000
ASUS41 KAKQ 270214
RWRAKQ

REGIONAL WEATHER ROUNDUP
NATIONAL WEATHER SERVICE WAKEFIELD VA
900 PM EST SUN FEB 26 2017

Note: "fair" indicates few or no clouds below 12,000 feet with no
significant weather and/or obstructions to visibility. * = Denotes
station may not report precipitation (e.g., rain,snow,etc.),
thunder or fog.

VAZ042-051-052>054-056-270300-
NORTHERN VIRGINIA

CITY           SKY/WX    TMP DP  RH WIND       PRES   REMARKS
WASH NATIONAL  PTCLDY    44  24  45 NE6       30.28R
DULLES         PTCLDY    33  20  58 CALM      30.27R
FORT BELVOIR   CLEAR     34  20  57 CALM      30.28R
QUANTICO       CLEAR     39  29  67 NW5       30.29R
FREDERICKSBRG* CLEAR     38  26  62 CALM      30.27R
STAFFORD*      CLEAR     31  24  74 CALM      30.31R
WARRENTON      CLEAR     33  20  57 CALM      30.26R
CULPEPER*      CLEAR     32  25  76 CALM      30.28R
MANASSAS*      CLEAR     32  25  75 CALM      30.28R
LEESBURG*      CLEAR     37  27  65 MISG      30.28R
WINCHESTER     CLEAR     28  18  64 CALM      30.25R
FRONT ROYAL*   NOT AVBL
LURAY*         CLEAR     34  19  55 SE5       30.25R
$$

VAZ048-049-060>072-079>083-270300-
CENTRAL AND SOUTH CENTRAL VIRGINIA

CITY           SKY/WX    TMP DP  RH WIND       PRES   REMARKS
RICHMOND       CLEAR     39  25  57 CALM      30.27R
CHESTERFIELD*  FAIR      37  12  35 CALM      30.29R
PETERSBURG*    CLEAR     29  26  87 CALM      30.29R
HANOVER        CLEAR     33  24  69 CALM      30.28R
TAPPAHANNOCK*  CLEAR     35  17  46 CALM      30.28R
QUINTON*       FAIR      37  27  69 S3        30.28R
CHARLOTTSVILLE CLEAR     45   9  23 VRB3      30.25R
GORDONSVILLE*  NOT AVBL
ORANGE*        CLEAR     32  27  80 CALM      30.28R
LOUISA*        CLEAR     39  21  48 N3        30.24R
BUMPASS*       FAIR      35  20  54 CALM      30.25R
FARMVILLE*     CLEAR     38  23  53 SE3       30.26R
CREWE*         NOT AVBL
FORT PICKETT*  NOT AVBL
CHASE CITY*    FAIR      35  24  63 CALM      30.28R
CLARKSVILLE*   NOT AVBL
SOUTH HILL*    CLEAR     33  28  84 CALM      30.34R
LAWRENCEVILLE* NOT AVBL
EMPORIA*       CLEAR     30  25  80 CALM      30.31R
$$

VAZ088>098-270300-
SOUTHEAST VIRGINIA

CITY           SKY/WX    TMP DP  RH WIND       PRES   REMARKS
NORFOLK        CLEAR     43  31  62 VRB3      30.31R
VIRGINIA BEACH CLEAR     38  28  67 E3        30.31R
NORFOLK NAVAL  CLEAR     40  30  67 SE3       30.32R
WEST POINT*    CLEAR     37  28  70 SE5       30.31R
SALUDA*        NOT AVBL
NEWPORT NEWS   CLEAR     36  31  82 CALM      30.30R
LANGLEY AFB    CLEAR     44  33  66 S5        30.30R
FORT EUSTIS    CLEAR     41  30  65 SE3       30.28R
WILLIAMSBURG*  CLEAR     41  34  75 CALM      30.30R
HR EXEC AP*    NOT AVBL
FRANKLIN*      CLEAR     36  28  74 CALM      30.31R
US460-WAKEFLD  CLEAR     34  29  82 CALM      30.29R
$$

VAZ020-022-025-037-045-270300-
WEST CENTRAL AND SOUTHWEST VIRGINIA

CITY           SKY/WX    TMP DP  RH WIND       PRES   REMARKS
STAUNTON*      CLEAR     27  17  65 CALM      30.26R
WAYNESBORO*    NOT AVBL
HOT SPRINGS VA CLEAR     32   1  27 CALM      30.18R
LYNCHBURG      CLEAR     35  16  45 CALM      30.27R
DANVILLE       CLEAR     36  25  64 NE3       30.27R
SOUTH BOSTON*  NOT AVBL
MARTINSVILLE   CLEAR     32  20  60 CALM      30.28S
ROANOKE        CLEAR     39  14  36 CALM      30.27R
BLACKSBURG     CLEAR     32  18  56 CALM      30.26R
DUBLIN*        CLEAR     32  18  55 CALM      30.25R
MARION*        CLEAR     32  21  64 CALM      30.25R
HILLSVILLE*    CLEAR     39  14  36 CALM      30.21R
RICHLANDS*     FAIR      37  15  41 CALM      30.20S
WISE*          CLEAR     36  14  41 CALM      30.21S
ABINGDON*      CLEAR     36  21  55 CALM      30.23R
$$

MDZ021>025-VAZ099-100-270300-
SOUTHERN MARYLAND AND THE DELMARVA PENINSULA

CITY           SKY/WX    TMP DP  RH WIND       PRES   REMARKS
PATUXENT RIVER CLEAR     31  29  92 CALM      30.28R
BAY BRIDGE APT CLEAR     36  25  64 CALM      30.28R
LEONARDTOWN    CLEAR     34  25  69 CALM      30.30R
DOVER          CLEAR     38  23  54 CALM      30.27R
GEORGETOWN     CLEAR     33  24  69 CALM      30.29R
EASTON         CLEAR     37  25  60 CALM      30.31R
CAMBRIDGE      CLEAR     32  25  74 CALM      30.29R
SALISBURY      CLEAR     31  25  78 CALM      30.29R
OCEAN CITY     CLEAR     33  24  69 CALM      30.30R
WALLOPS ISLAND CLEAR     36  23  59 CALM      30.31R
ACCOMACK*      CLEAR     34  27  75 CALM      30.30R
$$

NCZ012>017-030>032-270300-
NORTH CENTRAL AND EASTERN NORTH CAROLINA

CITY           SKY/WX    TMP DP  RH WIND       PRES   REMARKS
ROANOKE RAPIDS FAIR      36  30  80 CALM      30.30R
RALEIGH        PTCLDY    41  23  48 CALM      30.28R
ELIZABETH CITY CLEAR     42  37  82 SE6       30.32R
AHOSKIE*         N/A     35  27  72 CALM      30.31R
EDENTON*       CLEAR     42  30  60 CALM      30.32R
CURRITUCK*     CLEAR     42  36  78 CALM      30.32R
KILL DEVIL HLS NOT AVBL
MANTEO         CLEAR     41  35  78 E3        30.32R
CAPE HATTERAS  CLEAR     51  34  52 NW7       30.30R
TARBORO*       NOT AVBL
GOLDSBORO      CLEAR     39  28  65 E3        30.18R
WASHINGTON     CLEAR     40  30  69 CALM      30.31R
GREENVILLE     PTCLDY    39  28  65 CALM      30.31R
NEW BERN       CLEAR     40  31  70 CALM      30.31R
WILMINGTON     CLEAR     42  32  67 NE3       30.30R
$$

VAZ048-270300-
ELSEWHERE

CITY           SKY/WX    TMP DP  RH WIND       PRES   REMARKS
HARRISBURG PA  CLEAR     30  21  69 CALM      30.25R
BALTIMORE      CLEAR     32  22  66 CALM      30.27R
ANNAPOLIS      CLEAR     40  29  64 CALM      30.27R
ANDREWS AFB    PTCLDY    35  20  53 CALM      30.26R
PHILADELPHIA   CLEAR     39  16  39 W7        30.27R
HENDERSON NC   PTCLDY    38  21  49 CALM      30.28R
GREENSBORO     CLEAR     43  19  38 CALM      30.25R
ROCKY MOUNT    CLEAR     37  31  78 CALM      30.30R
$$

VAZ100-270300-
MARINE

STATION/POSITION TIME  TEMP    WIND        PRES    WAVE   SWELL
                       AIR SEA DIR/SP/G            HT/PER HT/PER
                 (UTC) (F)     (DEG/KT/KT) (MB)    (FT/S) (FT/S)
CAPE MAY NJ      0148   42 45  280/ 10/ 12 1025.1R
LEWES DE         0148   40 46  250/  5/  6 1025.5R
OCEAN-CITY-INLET 0148   39 44  230/  1/  1 1026.2R
WACHAPREAGUE VA  0142   37 53   CALM  /  1 1026.0R
THOMAS POINT MD  0200   44 44   10/  2/  3   N/A
GOOSES REEF MD   0200   45 45   90/  6/  8 1026.0
COVE POINT MD    0148   42     180/  2/  2 1025.9R
SOLOMONS ISLAND  0148   41 44  200/  1/  2   N/A
BISHOPS HEAD MD  0148   45 49  130/  5/  5 1025.9R
PINEY POINT MD   0142          110/  6/  7   N/A
POTOMAC MD       0200   44 44  180/  8/ 10 1024.8
CAMBRIDGE MD     0148   42 47  120/  2/  3 1024.8R
LEWISETTA VA     0142   42 50  170/  5/  5 1025.1R
RAPPAHANNOCK LGT 0142          130/  7/  8 1026.5R
YORK RVR RNG VA  0142   45     120/  7/  8 1025.2R
YORKTOWN VA      0142   44 50  140/  3/  5 1025.5R
JAMESTOWN VA     0200   44 53  110/  8/ 10   N/A
DOMINION TERM VA 0142   46     130/  8/  9 1026.0R
KIPTOPEKE VA     0142      50  130/  5/  7   N/A
CHES BAY BRIDGE  0142   45 48  150/  5/  8 1026.0R
CAPE HENRY VA    0142   43     130/  6/  7   N/A
WILLOUBY STN VA  0142   45     140/  5/  6 1026.8R
S CRANEY ISL VA  0142   45     150/  5/  7 1025.7R
CAPE HENRY BUOY  0142      48                N/A     3/10   2/11
OFFSHORE WE BUOY 0151      48                N/A     3/11   2/11
64NM E OF VA BCH 0150   44 50   60/  6/  8 1026.4R   5/ 9   5/ 9
DUCK PIER NC     0142   45 49  110/  9/  9 1025.9R
44100 DUCK FRF   0135      49                N/A     4/10   2/11
44056 DUCK FRF   0130      49                N/A     4/10   2/11
OREGON INLET NC  0142   46 57   60/  5/  7 1026.3R
HATTERAS NC      0142   52 62  240/  6/ 10 1025.6R
DIAMOND SHLS NC  0150   56 72  300/ 12/ 16 1026.1R   4/ 9   3/ 9
CAPE LOOKOUT NC  0100   55     280/ 10/ 12 1025.0R
$$




USA.gov is the U.S. government's official web portal to all federal, state and local government web resources and services.